Regional Weather Roundup
Issued by NWS Charleston, SC

Current Version | Previous Version | Text Only | Print | Product List | Glossary Off
Versions: 1 2 3 4 5 6 7 8 9 10 11 12 13 14 15 16 17 18 19 20 21 22 23 24 25 26 27 28 29 30 31 32 33 34 35 36 37 38 39 40 41 42 43 44 45 46 47 48 49 50

000
ASUS42 KCHS 220625
RWRCHS

REGIONAL WEATHER ROUNDUP
NATIONAL WEATHER SERVICE CHARLESTON SC
200 AM EDT WED OCT 22 2014

NOTE: "FAIR" INDICATES FEW OR NO CLOUDS BELOW 12,000 FEET WITH NO
SIGNIFICANT WEATHER AND/OR OBSTRUCTIONS TO VISIBILITY.

NOT ALL STATIONS ARE QUALITY CONTROLLED BY THE NATIONAL
WEATHER SERVICE. USE DATA WITH CAUTION...ESPECIALLY
DEWPOINT OBSERVATIONS.

SCZ027-030-031-034>040-042>050-220700-
...SOUTH CAROLINA...

CITY           SKY/WX    TMP DP  RH WIND       PRES   REMARKS
N CHARLESTON   CLEAR     63  49  60 N10       29.93R
6HR MIN TEMP:  61; 6HR MAX TEMP:  68;

WATERFRONT PRK NOT AVBL
FORT JOHNSON   NOT AVBL
JOHNS ISLAND   CLEAR     63  54  72 NW7       29.93S
PINOPOLIS      NOT AVBL
MONCKS CORNER  FAIR      64  54  68 N9        29.94R
SUMMERVILLE    FAIR      57  52  82 N6        29.95S
BEAUFORT MCAS  CLEAR     63  52  67 NW8       29.94S
6HR MIN TEMP:  60; 6HR MAX TEMP:  67;

BEAUFORT ARPT  FAIR      63  54  72 NW10      29.93S
HILTON HEAD IS CLEAR     64  54  68 NW6       29.95S
GEORGETOWN     NOT AVBL
WALTERBORO     CLEAR     57  55  94 N3        29.96R
ORANGEBURG     CLEAR     58  46  64 N6        29.97R
6HR MIN TEMP:  56; 6HR MAX TEMP:  64;

BARNWELL       FAIR      55  48  76 N5        29.98S
AIKEN          FAIR      52  45  76 CALM      30.02S
MANNING        FAIR      57  46  67 CALM      29.95S
KINGSTREE      NOT AVBL
COLUMBIA       CLEAR     58  42  55 NW3       29.97S
6HR MIN TEMP:  58; 6HR MAX TEMP:  68;

SUMTER         PTCLDY    57  43  58 N9        29.95S
6HR MIN TEMP:  57; 6HR MAX TEMP:  68;

FLORENCE       CLOUDY    60  40  47 N12       29.94S
6HR MIN TEMP:  60; 6HR MAX TEMP:  67;

MYRTLE BEACH   CLEAR     61  46  59 NW9       29.91S
N MYRTLE BEACH CLEAR     61  47  59 N9        29.90S
6HR MIN TEMP:  60; 6HR MAX TEMP:  66;


$$

GAZ063-065-086>088-099>101-113>116-118-119-134-136>141-150-220700-
...GEORGIA...

CITY           SKY/WX    TMP DP  RH WIND       PRES   REMARKS
SAVANNAH ARPT  CLEAR     60  53  77 W3        29.96S
6HR MIN TEMP:  59; 6HR MAX TEMP:  70;

HUNTER AAF     CLEAR     62  53  74 NW8       29.93F
6HR MIN TEMP:  59; 6HR MAX TEMP:  67;

FORT STEWART   CLEAR     56  52  87 CALM      29.95S
6HR MIN TEMP:  56; 6HR MAX TEMP:  65;

STATESBORO     NOT AVBL
SYLVANIA       CLEAR     56  55  95 CALM      29.98R
CLAXTON        FAIR      54  54 100 CALM      29.97S
THOMSON        CLEAR     51  51 100 CALM      30.04S
AUGUSTA-BUSH   CLEAR     52  45  77 N3        29.99S
6HR MIN TEMP:  50; 6HR MAX TEMP:  70;

AUGUSTA-DANIEL CLEAR     59  47  64 NW5       29.99S
SWAINSBORO     FAIR      59  52  77 MISG      29.99F
VIDALIA        CLEAR     59  52  77 N3        29.99S
ALMA           CLEAR     53  52  96 NW3       29.98S
6HR MIN TEMP:  53; 6HR MAX TEMP:  63;

WAYCROSS       CLEAR     59  57  93 CALM      29.97F
JESUP          FAIR      63  55  77 N6        29.97S
BRUNSWICK      CLEAR     55  54  94 W3        29.96F
SAINT SIMONS   CLEAR     62  54  74 CALM      29.96S
6HR MIN TEMP:  62; 6HR MAX TEMP:  69;


$$

SCZ027-028-034-036>038-045-046-048>050-GAZ119-141-220700-
...LAKE AND SUPPLEMENTAL COASTAL OBSERVATIONS...

STATION/POSITION TIME  TEMP    WIND        PRES    WAVE   SWELL
                       AIR SEA DIR/SP/G            HT/PER HT/PER/DIR
                 (UTC) (F)     (DEG/KT/KT) (MB)    (FT/S) (FT/S/D)
UPR LAKE MARION  NOT AVBL
WINYAH BAY       0600   62     330/  8     1012.0S
LAKE MURRAY      0500   58     340/  2/  5 1014.6S
ACE BASIN NERRS  0600   62     320/  3     1013.0S
FORT PULASKI     0600   65     300/ 11/ 14 1014.1S
SAPELO ISLAND    NOT AVBL

$$

ANZ835-935-AMZ111-154-330-350-352-354-374-450-454-472-220700-
...C-MAN AND BUOY OBSERVATIONS...

STATION/POSITION TIME  TEMP    WIND        PRES    WAVE   SWELL
                       AIR SEA DIR/SP/G            HT/PER HT/PER/DIR
                 (UTC) (F)     (DEG/KT/KT) (MB)    (FT/S) (FT/S/D)
FOLLY BEACH CMAN 0600   65     360/ 13/ 15 1013.6R
BUOY 41004       0600   76 79  280/ 16/ 17 1011.5F   3/ 4   2/ 9
BUOY 41008       0600   74 76  320/ 10/ 12 1014.0F   2/ 8   2/120/ 8
5E ST. MARYS GA  0600      77                N/A     1/12
FRYING PAN BUOY  0600   74 75  240/ 14/ 16 1011.5F   3/ 4   2/160/ 9
BUOY 41025       0600   72     260/ 14/ 17 1009.0F   4/ 6   2/110/ 8
CAPE LOOKOUT NC  0600   63     340/ 19/ 21 1010.3R
BUOY 41002       0546   78 80  270/ 16/ 17 1011.3F   3/10   2/100/10
BUOY 41010       0600   79 80  230/ 10/ 12 1013.3F   2/ 9   2/ 60/ 9
BUOY 41012       NOT AVBL
ST AUGUSTINE FL  0600   68     260/  6/  7 1014.5F
CAPERS NEARSHORE 0500   71     290/ 14/ 14   N/A
FRIPP NEARSHORE  NOT AVBL


$$



USA.gov is the U.S. government's official web portal to all federal, state and local government web resources and services.